Bonaire, Netherlands

12:23 PM AST on October 20, 2017 (GMT -0400)
Flamingo

Weather History for TNCB - July, 2012

Change the Weather History Date:

Wednesday, July 25, 2012

  Actual Average Record
Temperature  
Mean Temperature 84 °F -  
Max Temperature 88 °F 88 °F 91 °F (1998)
Min Temperature 80 °F 81 °F 78 °F (1996)
Cooling Degree Days 19    
Growing Degree Days 34 (Base 50)    
Moisture  
Dew Point 76 °F    
Average Humidity 74    
Maximum Humidity 84    
Minimum Humidity 63    
Precipitation  
Precipitation 0.00 in - - ()
Sea Level Pressure  
Sea Level Pressure 29.95 in    
Wind  
Wind Speed 18 mph ()    
Max Wind Speed 36 mph    
Max Gust Speed -    
Visibility 6.2 miles    
Events      
Averages and records for this station are not official NWS values.
T = Trace of Precipitation, MM = Missing Value Source: Averaged Metar Reports

Daily Weather History Graph

Daily Weather History Graph

Search for Another Location

Airport or City:

Trip Planner

Search our weather history database for the weather conditions in past years. The results will help you decide how hot, cold, wet, or windy it might be!

Date:

Astronomy

Jul. 25, 2012 Rise Set
Actual Time 6:18 AM AST 7:00 PM AST
Civil Twilight 5:55 AM AST 7:23 PM AST
Nautical Twilight 5:29 AM AST 7:49 PM AST
Astronomical Twilight 5:02 AM AST 8:16 PM AST
Moon 11:53 AM AST (7/25) 11:54 PM AST (7/25)
Length of Visible Light 13h 27m
Length of Day
12h 42m
Waxing Crescent, 42% of the Moon is Illuminated
Jul 25
Waxing Crescent
Jul 26
First Quarter
Aug 1
Full
Aug 9
Last Quarter
Aug 17
New

Hourly Weather History & Observations

Time (AST) Temp. Heat Index Dew Point Humidity Pressure Visibility Wind Dir Wind Speed Gust Speed Precip Events Conditions
12:00 AM 82.4 °F 90.9 °F 77.0 °F 84% 29.98 in - North - - N/A   Unknown
1:00 AM 80.6 °F 86.2 °F 75.2 °F 84% 29.95 in 6.2 mi East 18.4 mph - N/A   Scattered Clouds
2:00 AM 81 °F - 75 °F 78%  in 22 mi East 18.4 mph - -   Clear
2:00 AM 80.6 °F 86.2 °F 75.2 °F 84% 29.95 in - North - - N/A   Unknown
5:00 AM 81 °F - 76 °F 80%  in - East 18.4 mph - -   Clear
5:00 AM 80.6 °F 86.2 °F 75.2 °F 84% 29.95 in - North - - N/A   Unknown
6:00 AM 80.6 °F 86.2 °F 75.2 °F 84% 29.95 in - North - - N/A   Unknown
7:00 AM 82.4 °F 90.9 °F 77.0 °F 84% 29.95 in - North - - N/A   Unknown
8:00 AM 84 °F - 76 °F 72% 30.00 in 22 mi East 17.3 mph - -   Partly Cloudy
8:00 AM 84.2 °F 94.1 °F 77.0 °F 79% 29.98 in 6.2 mi East 17.3 mph - N/A   Scattered Clouds
9:00 AM 86.0 °F 96.9 °F 77.0 °F 74% 29.98 in 6.2 mi East 19.6 mph - N/A   Scattered Clouds
10:00 AM 86.0 °F 96.9 °F 77.0 °F 74% 30.01 in 6.2 mi East 19.6 mph - N/A   Scattered Clouds
11:00 AM 87 °F - 76 °F 63% 30.01 in 22 mi East 21.9 mph - -   Partly Cloudy
11:00 AM 87.8 °F 99.7 °F 77.0 °F 70% 29.98 in 6.2 mi East 21.9 mph - N/A   Scattered Clouds
12:00 PM 87.8 °F 99.7 °F 77.0 °F 70% 29.98 in - North - - N/A   Unknown
1:00 PM 87.8 °F 99.7 °F 77.0 °F 70% 29.98 in 6.2 mi East 23.0 mph - N/A   Scattered Clouds
2:00 PM 87 °F - 77 °F 64%  in 22 mi East 18.4 mph - -   Clear
2:00 PM 87.8 °F 99.7 °F 77.0 °F 70% 29.95 in 6.2 mi East 18.4 mph - N/A   Scattered Clouds
3:00 PM 87.8 °F 97.6 °F 75.2 °F 66% 29.92 in 6.2 mi East 24.2 mph - N/A   Partly Cloudy
4:00 PM 87.8 °F 97.6 °F 75.2 °F 66% 29.89 in 6.2 mi East 23.0 mph - N/A   Partly Cloudy
5:00 PM 87 °F - 77 °F 64% 29.91 in 22 mi East 23.0 mph - -   Partly Cloudy
5:00 PM 87.8 °F 99.7 °F 77.0 °F 70% 29.89 in 6.2 mi East 23.0 mph - N/A   Scattered Clouds
6:00 PM 86.0 °F 95.1 °F 75.2 °F 70% 29.89 in 6.2 mi East 24.2 mph - N/A   Scattered Clouds
7:00 PM 84.2 °F 92.3 °F 75.2 °F 74% 29.92 in 6.2 mi East 21.9 mph - N/A   Scattered Clouds
8:00 PM 83 °F - 74 °F 69%  in 6 mi East 18.4 mph - -   Clear
8:00 PM 82.4 °F 89.5 °F 75.2 °F 79% 29.92 in 6.2 mi East 18.4 mph - N/A   Scattered Clouds
9:00 PM 82.4 °F 89.5 °F 75.2 °F 79% 29.95 in 6.2 mi East 18.4 mph - N/A   Scattered Clouds
10:00 PM 82.4 °F 88.2 °F 73.4 °F 74% 29.98 in 6.2 mi East 18.4 mph - N/A   Scattered Clouds
11:00 PM 82 °F - 75 °F 73%  in - East 35.8 mph - -   Clear
11:00 PM 82.4 °F 89.5 °F 75.2 °F 79% 29.98 in - East 18.4 mph - N/A   Unknown